Sergio Caceda

Olheiro - Sporting Cristal
3 Dez 2028
Domingo
Processo

Personalidade

Adaptabilidade (14) Ambição (4) Controvérsia (13) Lealdade (15) Pressão (15) Profissionalismo (16) Espírito Esportivo (17) Temperamento (3)

Perfil

Estilo de Treinamento Democrático
Licença Continental C
Determinação 6
Gestão de Pessoas 7
Motivação 10
Disciplina 9
Satisfação no Trabalho
100%
Fadiga
0%
Função Olheiro
Salário 25.2K p/s
Contrato 14.03.2029

Desempenho

Comportamento Bom
Eficácia do Treinamento
39%
Desenvolvimento do Jogador
40%
Prevenção de Lesões
65%
Implementação Tática
25%

Eventos Recentes

Participou de uma reunião de recrutamento agora
Recomendou um alvo de transferência agora
Recomendou um alvo de transferência agora
Recomendou um alvo de transferência 7d atrás
Avaliou um jogador 7d atrás
Avaliou um jogador 7d atrás
Avaliou um jogador 7d atrás
Avaliou um jogador 7d atrás

Monitorando agora

123
Jogador Clube Status Habilidade Confiança Observado Última observação Último voto
Celías Ingenthron Platense Ativo 120 / 128 40% 10 28.11.2028 -
Gideon Manaseh Ikorodu City Ativo 95 / 103 40% 6 28.11.2028 -
Mateo Godoy Zira Ativo 92 / 86 40% 2 28.11.2028 -
Máximo Munarriz San Telmo Ativo 101 / 101 40% 3 26.11.2028 -
Tiago Gordillo San Miguel Ativo 87 / 96 40% 5 26.11.2028 -
Matías Satas Grimsby Town Ativo 104 / 117 40% 2 26.11.2028 -
Óscar Hinojosa Metropolitanos Ativo 87 / 84 40% 4 25.11.2028 -
Tobías Andrada River Plate Ativo 117 / 121 40% 2 25.11.2028 -
Mauro Matorras Central Norte Ativo 94 / 96 40% 2 25.11.2028 -
Joel Ezra Enyimba Ativo 95 / 104 40% 6 24.11.2028 -
Mateo Caballero Defensor Sporting Ativo 97 / 109 40% 2 24.11.2028 -
José Neto Benfica Ativo 125 / 126 40% 1 24.11.2028 -
Tyler Fletcher Rotherham United Ativo 113 / 123 40% 5 21.11.2028 -
Germán Barbas Racing Santander Ativo 126 / 131 40% 3 21.11.2028 -
Lucas Nicol Mjondalen Ativo 79 / 82 40% 2 21.11.2028 -
Yury Oyarzo Racing Ativo 93 / 109 40% 5 18.11.2028 -
Felipe Pujol Vélez Ativo 106 / 121 40% 3 18.11.2028 -
Matías Magdaleno Estudiantes Ativo 112 / 122 40% 4 13.11.2028 -
Ivan Borges Defensores Ativo 85 / 89 40% 2 13.11.2028 -
Anderson Acevedo Bogota Ativo 86 / 97 40% 4 10.11.2028 -
Malte Hallin GIF Sundsvall Ativo 90 / 108 40% 1 10.11.2028 -
Felipe Varela Trujillanos Ativo 94 / 92 40% 2 08.11.2028 -
Davinchi Getafe Ativo 134 / 131 40% 2 08.11.2028 -
Tyson Pearce St. Louis CITY SC Ativo 96 / 103 40% 1 08.11.2028 -
Benito Paklayan Alvarado Ativo 89 / 98 40% 2 06.11.2028 -
Sergio Martínez Real Madrid Ativo 126 / 136 40% 1 06.11.2028 -
Mateo Faure BATE Ativo 96 / 89 40% 4 04.11.2028 -
Máximo Magnoli Ferro Carril Oeste Ativo 92 / 95 40% 2 03.11.2028 -
Santino Baldassarri Orenburg Ativo 81 / 91 40% 1 03.11.2028 -
Noah Markmann Esbjerg Ativo 118 / 120 40% 1 03.11.2028 -
Joaquín Salas Reading Ativo 103 / 98 40% 1 31.10.2028 -
Estanislao López Colón Ativo 96 / 103 40% 5 27.10.2028 -
Cayetano Santarelli BATE Ativo 94 / 103 40% 2 27.10.2028 -
Giaco Garombo Sheffield Wednesday Ativo 103 / 120 40% 1 26.10.2028 -
Felipe Obradovich Ferro Carril Oeste Ativo 106 / 115 40% 4 22.10.2028 -
Juan Camilo Córdoba Deportivo Pereira Ativo 88 / 95 40% 3 22.10.2028 -
Santiago Espíndola River Plate Ativo 110 / 128 40% 1 18.10.2028 -
Aaron Branca Artigas Ativo 81 / 93 40% 1 16.10.2028 -
Agustín Medina Lanús Ativo 120 / 125 40% 3 15.10.2028 -
Hian Rincón Once Caldas Ativo 97 / 103 40% 1 14.10.2028 -
Aytor Herrera Mineros de Guayana Ativo 89 / 97 40% 3 13.10.2028 -
Milan Roki Cobresal Ativo 83 / 84 40% 1 13.10.2028 -
Renato Morales Cobresal Ativo 86 / 80 40% 1 13.10.2028 -
Diego Cheuquepal Racing Ativo 107 / 106 40% 3 12.10.2028 -
Ignacio Fernández Boston River Ativo 88 / 97 40% 1 09.10.2028 -
Lautaro Dufur Juventud Ativo 102 / 104 40% 5 08.10.2028 -
Alejandro Tapia Central Norte Ativo 88 / 95 40% 3 06.10.2028 -
Tobías Ramírez River Plate Ativo 134 / 127 40% 2 06.10.2028 -
Samuel Molano Patriotas Ativo 89 / 87 40% 1 06.10.2028 -
Mauricio Ponce Quilmes Ativo 93 / 101 40% 1 05.10.2028 -
Alejandro Almaraz NK Celje Ativo 118 / 121 40% 3 29.09.2028 -
Luciano Posadas Central Córdoba SdE Ativo 96 / 110 40% 2 27.09.2028 -
Samuel Córdoba Depor Ativo 90 / 99 40% 1 27.09.2028 -
Leandro Alegre Los Andes Ativo 83 / 95 40% 1 25.09.2028 -
Luis Otávio Orlando City Ativo 112 / 122 40% 3 22.09.2028 -
Hosea Michael Remo Stars Ativo 85 / 93 40% 6 18.09.2028 -
Andrés Cuenca Como Ativo 112 / 119 40% 1 18.09.2028 -
Facundo Balatti Penarol Ativo 99 / 114 40% 1 18.09.2028 -
Lucas Camejo River Plate Ativo 86 / 93 40% 3 11.09.2028 -
Sebastian Rodriguez Houston Dynamo Ativo 118 / 135 40% 1 04.09.2028 -
Francisco Machis Llaneros Ativo 88 / 95 40% 2 30.08.2028 -
Mohammed Habib Sarwari Kariobangi Sharks Ativo 70 / 79 40% 2 30.08.2028 -
Peyton Miller New England Revolution Ativo 115 / 121 40% 1 29.08.2028 -
Santino Mambrín Instituto Ativo 88 / 104 40% 1 29.08.2028 -
Abubakar Adams Aduana Stars Ativo 93 / 101 40% 2 26.08.2028 -
Kwesi Sorotu Badori Berekum Chelsea Ativo 100 / 109 40% 1 26.08.2028 -
Gastón Rodríguez Racing Ativo 82 / 94 40% 1 26.08.2028 -
Francisco Arias Gimnasia y Esgrima Ativo 87 / 99 40% 1 25.08.2028 -
David Fernande PWD Bamenda Ativo 78 / 84 40% 1 11.08.2028 -
Jan Bürger Northampton Town Ativo 121 / 133 40% 5 06.08.2028 -
Diego Vargas Universidad de Concepcion Ativo 98 / 101 40% 2 05.08.2028 -
Riquelme Thompson-Jones Accrington Stanley Ativo 112 / 110 40% 1 05.08.2028 -
Khama Mabunda Platinum Stars Ativo 80 / 90 40% 1 26.07.2028 -
Musa Danjuma Umraniyespor Ativo 103 / 101 40% 4 24.07.2028 -
Federico Matarán Giana Erminio Ativo 114 / 104 40% 2 24.07.2028 -
Daniel Banjaqui Benfica Ativo 129 / 139 40% 3 18.07.2028 -
Kiani Inge Groningen Ativo 116 / 127 40% 3 15.07.2028 -
Thijs Kraaijeveld USM Alger Ativo 120 / 120 40% 3 14.07.2028 -
Martim Cunha Porto Ativo 108 / 106 40% 3 04.07.2028 -
Nicolò Moranduzzo Renate Ativo 92 / 99 40% 1 04.07.2028 -
Nazareno Roselli Defensa y Justicia Ativo 114 / 128 40% 2 29.06.2028 -
Tobiáš Pališčák Zlin Ativo 97 / 100 40% 2 28.06.2028 -
Lamine Bèye Portimonense Ativo 106 / 120 40% 2 21.06.2028 -
Josh Nichols Oldham Athletic Ativo 115 / 134 40% 3 20.06.2028 -
Dmytro Strilchuk Podillia Ativo 93 / 95 40% 1 19.06.2028 -
Alan Cantero Juan Aurich Ativo 123 / 118 79% 1 12.06.2028 Aprovar
Francisco Fernandes Porto Ativo 103 / 115 40% 1 10.05.2028 -
Andrea Luongo Trento Ativo 91 / 116 40% 1 10.05.2028 -
Siyabonga Mabena Bidvest Wits Ativo 116 / 118 40% 2 09.05.2028 -
Gabriel Mec Feirense Ativo 132 / 132 40% 2 09.05.2028 -
Ryan McAidoo Oldham Athletic Ativo 129 / 131 40% 1 09.05.2028 -
Luca Meirelles Kudrivka Ativo 134 / 126 40% 2 08.05.2028 -
Davide Atzeni Gubbio Ativo 96 / 98 40% 1 08.05.2028 -
Jeremías Merlo Gimnasia La Plata Ativo 122 / 119 40% 1 08.05.2028 -
Igor Tyjon Barrow AFC Ativo 113 / 114 40% 2 07.05.2028 -
Vincenzo Damiano Atalanta Ativo 95 / 113 40% 1 05.05.2028 -
Ibrahim Fullah Charlton Athletic Ativo 131 / 115 40% 1 03.05.2028 -
Jake Evans Crewe Alexandra Ativo 114 / 130 40% 1 03.05.2028 -
Henrique Carmo Sochi Ativo 136 / 122 40% 1 03.05.2028 -
Luca Williams-Barnett Walsall Ativo 121 / 130 40% 4 01.05.2028 -
André Miranda Porto Ativo 106 / 120 40% 1 01.05.2028 -
Kubrat Onasci Septemvri Ativo 93 / 109 40% 1 28.04.2028 -
Lisandro Piñero Banfield Ativo 125 / 132 40% 2 25.04.2028 -
Bernardo Lima Porto Ativo 107 / 118 40% 1 25.04.2028 -
Halam Loboa Sevilla Ativo 125 / 122 40% 2 23.04.2028 -
Gomolemo Kekana Maritzburg United Ativo 109 / 107 40% 1 23.04.2028 -
Ángel Aguayo Sol de America Ativo 97 / 97 40% 1 23.04.2028 -
Ben Broggio Mansfield Town Ativo 100 / 119 40% 1 20.04.2028 -
Bence Szakos Aris Ativo 102 / 107 40% 1 19.04.2028 -
Matvey Bardachev Zenit Ativo 109 / 108 40% 1 14.04.2028 -
Andrea Bertoncini Triestina Ativo 98 / 107 40% 1 14.04.2028 -
Miguel Figueiredo Benfica Ativo 113 / 135 40% 2 10.04.2028 -
Olivier Leroux Mouscron Ativo 105 / 97 40% 1 10.04.2028 -
Andrey Ivlev Nizhniy Novgorod Ativo 119 / 119 40% 1 10.04.2028 -
Artem Luttsev Saturn Ativo 78 / 69 40% 1 08.04.2028 -
Amine Boukamir Charleroi Ativo 104 / 122 40% 1 07.04.2028 -
Olivier Mambwa Young Boys Ativo 108 / 119 40% 1 07.04.2028 -
Lisandro Alzugaray Universitario Ativo 118 / 117 76% 1 01.12.2027 Aprovar
Godwin Oham Warri Wolves Ativo 93 / 87 40% 2 09.11.2027 -
Edvard Pettersen Sandefjord Ativo 106 / 113 40% 1 09.11.2027 -
Matías Canedo Rampla Juniors Ativo 80 / 84 40% 1 04.11.2027 -
Juan Manuel Villalba Tigre Ativo 122 / 124 40% 1 01.11.2027 -
Mauro Carrizo Atlético Tucumán Ativo 97 / 101 40% 1 30.11.2026 -